Weather History for Hyderabad, India

Change the Weather History Date:

Wednesday, October 3, 2012

  Actual Average Record
Temperature  
Mean Temperature 72 °F -  
Max Temperature 83 °F 83 °F 95 °F (2014)
Min Temperature 60 °F 68 °F 60 °F (2012)
Cooling Degree Days 6    
Growing Degree Days 22 (Base 50)    
Moisture  
Dew Point 70 °F    
Average Humidity 77    
Maximum Humidity 96    
Minimum Humidity 65    
Precipitation  
Precipitation 0.00 in 0.12 in - ()
Sea Level Pressure  
Sea Level Pressure 29.79 in    
Wind  
Wind Speed 4 mph ()    
Max Wind Speed 21 mph    
Max Gust Speed -    
Visibility 3.5 miles    
Events Rain , Thunderstorm    
Averages and records for this station are not official NWS values.
T = Trace of Precipitation, MM = Missing Value Source: Averaged Metar Reports

Daily Weather History Graph

Daily Weather History Graph

Search for Another Location

Airport:

Trip Planner

Search our weather history database for the weather conditions in past years. The results will help you decide how hot, cold, wet, or windy it might be!

Date:

Astronomy

Oct. 03, 2012 Rise Set
Actual Time 6:06 AM IST 6:03 PM IST
Civil Twilight 5:45 AM IST 6:24 PM IST
Nautical Twilight 5:19 AM IST 6:50 PM IST
Astronomical Twilight 4:54 AM IST 7:15 PM IST
Moon 8:09 PM IST (10/3) 8:32 AM IST (10/3)
Length of Visible Light 12h 39m
Length of Day
11h 56m
Waning Gibbous, 91% of the Moon is Illuminated
Oct 3
Waning Gibbous
Oct 8
Last Quarter
Oct 15
New
Oct 22
First Quarter
Oct 30
Full

Hourly Weather History & Observations

Time (IST) Temp. Heat Index Dew Point Humidity Pressure Visibility Wind Dir Wind Speed Gust Speed Precip Events Conditions
2:30 AM 73 °F - 70 °F 86% 29.73 in 2 mi Calm Calm - - Rain Light Rain
5:30 AM 73 °F - 70 °F 87% 29.73 in 2 mi 2.3 mph - - Rain Light Rain
6:10 AM 73.4 °F - 69.8 °F 88% 29.83 in 3.1 mi Calm Calm - N/A   Haze
7:10 AM 73.4 °F - 68.0 °F 83% 29.86 in 3.1 mi South 5.8 mph - N/A   Haze
8:10 AM 73.4 °F - 69.8 °F 88% 29.89 in 3.1 mi WSW 5.8 mph - N/A   Haze
8:30 AM 77 °F - 73 °F 84% 29.78 in 2 mi 2.3 mph - -   Haze
9:10 AM 77.0 °F - 69.8 °F 78% 29.89 in 3.1 mi South 6.9 mph - N/A   Haze
11:10 AM 80.6 °F 83.2 °F 68.0 °F 65% 29.89 in 3.7 mi SW 6.9 mph - N/A   Scattered Clouds
11:30 AM 78 °F - 73 °F 81% 29.76 in 6 mi 2.3 mph - - Rain Light Drizzle
12:10 PM 78.8 °F - 69.8 °F 74% 29.86 in 3.7 mi South 6.9 mph - N/A   Scattered Clouds
1:10 PM 80.6 °F 83.9 °F 69.8 °F 70% 29.83 in 3.7 mi West 6.9 mph - N/A   Scattered Clouds
2:30 PM 82 °F - 73 °F 67% 29.67 in 6 mi SW 4.6 mph - -   Mostly Cloudy
2:40 PM 82.4 °F 86.3 °F 69.8 °F 66% 29.77 in 3.7 mi WSW 5.8 mph - N/A   Mostly Cloudy
3:10 PM 82.4 °F 86.3 °F 69.8 °F 66% 29.77 in 3.7 mi West 11.5 mph - N/A   Mostly Cloudy
4:10 PM 82.4 °F 86.3 °F 69.8 °F 66% 29.77 in 3.7 mi SSW 10.4 mph - N/A   Mostly Cloudy
5:10 PM 80.6 °F 83.9 °F 69.8 °F 70% 29.77 in 3.7 mi SW 11.5 mph - N/A   Scattered Clouds
5:30 PM 80 °F - 72 °F 70% 29.66 in 6 mi SW 3.5 mph - -   Mostly Cloudy
6:10 PM 80.6 °F 83.9 °F 69.8 °F 70% 29.77 in 3.7 mi SW 9.2 mph - N/A   Mostly Cloudy
7:10 PM 60.8 °F - 50.0 °F 68% 29.80 in 3.7 mi SW 6.9 mph - N/A   Scattered Clouds
8:10 PM 77.0 °F - 68.0 °F 74% 29.83 in 3.7 mi WSW 5.8 mph - N/A   Scattered Clouds
8:30 PM 77 °F - 74 °F 87% 29.74 in 2 mi West 20.7 mph - - Thunderstorm Thunderstorm
11:30 PM 75 °F - 74 °F 96% 29.75 in 1 mi West 6.9 mph - - Rain Light Rain